Santee, CA

4:02 AM PST on February 13, 2016 (GMT -0800)
Gillespie

Weather History for KSEE - October, 2012

Change the Weather History Date:

Friday, October 5, 2012

  Actual Average Record
Temperature  
Mean Temperature 70 °F -  
Max Temperature 80 °F 80 °F 104 °F (1987)
Min Temperature 59 °F 55 °F 50 °F (1999)
Cooling Degree Days 4    
Growing Degree Days 20 (Base 50)    
Moisture  
Dew Point 57 °F    
Average Humidity 79    
Maximum Humidity 94    
Minimum Humidity 42    
Precipitation  
Precipitation 0.00 in - - ()
Sea Level Pressure  
Sea Level Pressure 30.04 in    
Wind  
Wind Speed 2 mph (WNW)    
Max Wind Speed 9 mph    
Max Gust Speed -    
Visibility 10 miles    
Events      
Averages and records for this station are not official NWS values.
T = Trace of Precipitation, MM = Missing Value Source: NWS Daily Summary

Daily Weather History Graph

Daily Weather History Graph

Search for Another Location

Airport or City:

Trip Planner

Search our weather history database for the weather conditions in past years. The results will help you decide how hot, cold, wet, or windy it might be!

Date:

Astronomy

Oct. 05, 2012 Rise Set
Actual Time 6:45 AM PDT 6:26 PM PDT
Civil Twilight 6:20 AM PDT 6:51 PM PDT
Nautical Twilight 5:51 AM PDT 7:19 PM PDT
Astronomical Twilight 5:23 AM PDT 7:48 PM PDT
Moon 10:08 PM PDT (10/5) 11:41 AM PDT (10/5)
Length of Visible Light 12h 30m
Length of Day
11h 41m
Waning Gibbous, 73% of the Moon is Illuminated
Oct 5
Waning Gibbous
Oct 8
Last Quarter
Oct 15
New
Oct 21
First Quarter
Oct 29
Full

Hourly Weather History & Observations

Time (PDT) Temp. Heat Index Dew Point Humidity Pressure Visibility Wind Dir Wind Speed Gust Speed Precip Events Conditions
12:15 AM 60.8 °F - 57.2 °F 88% 30.08 in 10.0 mi WNW 3.5 mph - N/A   Clear
12:35 AM 60.8 °F - 57.2 °F 88% 30.08 in 10.0 mi West 3.5 mph - N/A   Clear
12:55 AM 59.0 °F - 57.2 °F 94% 30.09 in 10.0 mi WNW 4.6 mph - N/A   Scattered Clouds
1:15 AM 59.0 °F - 57.2 °F 94% 30.09 in 10.0 mi WNW 3.5 mph - N/A   Overcast
1:35 AM 60.8 °F - 57.2 °F 88% 30.08 in 9.0 mi Calm Calm - N/A   Overcast
1:55 AM 60.8 °F - 57.2 °F 88% 30.08 in 10.0 mi Calm Calm - N/A   Overcast
2:15 AM 60.8 °F - 57.2 °F 88% 30.08 in 10.0 mi Calm Calm - N/A   Overcast
2:35 AM 62.6 °F - 57.2 °F 82% 30.08 in 10.0 mi Calm Calm - N/A   Overcast
2:55 AM 62.6 °F - 57.2 °F 82% 30.08 in 10.0 mi Calm Calm - N/A   Overcast
3:15 AM 62.6 °F - 57.2 °F 82% 30.07 in 10.0 mi Calm Calm - N/A   Overcast
3:35 AM 62.6 °F - 57.2 °F 82% 30.07 in 10.0 mi Calm Calm - N/A   Overcast
3:55 AM 62.6 °F - 57.2 °F 82% 30.06 in 10.0 mi North - - N/A   Overcast
4:15 AM 64.4 °F - 57.2 °F 77% 30.06 in 10.0 mi Calm Calm - N/A   Overcast
4:35 AM 64.4 °F - 57.2 °F 77% 30.06 in 10.0 mi North - - N/A   Overcast
4:55 AM 64.4 °F - 57.2 °F 77% 30.06 in 10.0 mi Calm Calm - N/A   Overcast
5:15 AM 64.4 °F - 57.2 °F 77% 30.06 in 10.0 mi Calm Calm - N/A   Overcast
5:35 AM 64.4 °F - 55.4 °F 73% 30.06 in 10.0 mi East 5.8 mph - N/A   Overcast
5:55 AM 64.4 °F - 55.4 °F 73% 30.06 in 10.0 mi East 5.8 mph - N/A   Overcast
6:15 AM 62.6 °F - 55.4 °F 77% 30.06 in 10.0 mi ESE 5.8 mph - N/A   Overcast
11:47 AM 80.6 °F 80.5 °F 55.4 °F 42% 30.04 in 25.0 mi Calm Calm - N/A   Scattered Clouds
3:47 PM 75.2 °F - 55.4 °F 50% 29.97 in 12.0 mi West 9.2 mph - N/A   Mostly Cloudy
4:47 PM 73.4 °F - 55.4 °F 53% 29.96 in 12.0 mi West 6.9 mph - N/A   Mostly Cloudy
7:47 PM 66.2 °F - 57.2 °F 73% 29.98 in 12.0 mi Calm Calm - N/A   Clear
8:47 PM 64.4 °F - 57.2 °F 77% 29.98 in 12.0 mi Calm Calm - N/A   Clear
9:15 PM 62.6 °F - 57.2 °F 82% 29.99 in 10.0 mi West 4.6 mph - N/A   Clear
9:35 PM 62.6 °F - 57.2 °F 82% 29.99 in 9.0 mi West 4.6 mph - N/A   Clear
9:55 PM 62.6 °F - 57.2 °F 82% 29.98 in 10.0 mi Calm Calm - N/A   Clear
10:15 PM 62.6 °F - 57.2 °F 82% 29.99 in 10.0 mi North - - N/A   Clear
10:35 PM 62.6 °F - 57.2 °F 82% 29.99 in 10.0 mi WNW 3.5 mph - N/A   Clear
10:55 PM 62.6 °F - 57.2 °F 82% 29.99 in 10.0 mi Calm Calm - N/A   Clear
11:15 PM 62.6 °F - 57.2 °F 82% 29.99 in 10.0 mi Calm Calm - N/A   Clear
11:55 PM 60.8 °F - 55.4 °F 82% 29.99 in 10.0 mi Calm Calm - N/A   Clear